Torna al catalogo

STARLINK-30239

AttivoComunicazioniVLEO
NORAD 57291·PAYLOAD·🇺🇸 United States

Lanciato Jul 10, 2023 da Cape Canaveral Space Force Station

Loading…

Prossimi Passaggi (prossime 24 ore)

TLE

AggiornatoSource: CelesTrak SupGP

Epoca: Sep 14, 2026, 22:33 UTC

1 57291C 23096B   26257.94006944  .00211650  00000+0  24487-2 0  2570
2 57291  42.9996 227.9862 0001574 270.9919 120.0225 15.60837373    11

Traccia STARLINK-30239 in tempo reale con AllMySat

Download on the App Store